Date String (YYYY-MM-DD hh:mm:ss) UTC,Instrument flags,Ambient pressure (hPa),Sample flow (lpm),Bypass flow (lpm),Sample temperature (°C),Ambient temperature (°C),ASC tube jacket temperature (°C),LED temperature (°C),Box temperature (°C),Sample RH (%),Span deviation,Mass concentration (μg/m³),Mass concentration (μg/m³),Mass concentration (μg/m³)
DateTimeUTC,F1_M11,P_M11,Q1_M11,Q2_M11,T1_M11,T2_M11,T3_M11,T4_M11,T5_M11,U1_M11,ZSPAN_M11,X0_M11,X2_M11,X1_M11
2022-10-25 05:00:00,,0821.0,5.00,0.00,22.7,21.0,00.0,31.6,24.6,08.2,0000.0,0004.01,0002.45,0002.12
2022-10-25 05:01:00,,0821.0,4.98,0.00,22.7,21.0,00.0,31.6,24.6,08.2,0000.0,0003.92,0002.42,0002.10
2022-10-25 05:02:00,,0821.0,5.01,0.00,22.7,21.0,00.0,31.5,24.6,08.1,0000.0,0003.85,0002.38,0002.08
2022-10-25 05:03:00,,0821.0,5.01,0.00,22.7,21.0,00.0,31.5,24.6,08.1,0000.0,0003.87,0002.37,0002.05
2022-10-25 05:04:00,,0821.0,5.01,0.00,22.7,21.2,00.0,31.5,24.6,08.1,0000.0,0004.21,0002.41,0002.05
2022-10-25 05:05:00,,0820.9,4.97,0.00,22.7,21.3,00.0,31.5,24.6,08.1,0000.0,0004.22,0002.42,0002.05
2022-10-25 05:06:00,,0820.9,5.01,0.00,22.7,21.3,00.0,31.5,24.7,08.1,0000.0,0004.57,0002.45,0002.04
2022-10-25 05:07:00,,0821.0,4.99,0.00,22.7,21.3,00.0,31.5,24.7,08.1,0000.0,0004.69,0002.42,0002.04
2022-10-25 05:08:00,,0820.9,5.01,0.00,22.8,21.3,00.0,31.5,24.7,08.1,0000.0,0004.65,0002.39,0002.03
2022-10-25 05:09:00,,0820.9,4.99,0.00,22.8,21.4,00.0,31.5,24.7,08.1,0000.0,0004.66,0002.37,0002.02
2022-10-25 05:10:00,,0820.9,5.00,0.00,22.8,21.3,00.0,31.5,24.7,08.1,0000.0,0003.82,0002.34,0002.01
2022-10-25 05:11:00,,0820.9,5.00,0.00,22.8,21.4,00.0,31.5,24.7,08.1,0000.0,0003.75,0002.29,0002.00
2022-10-25 05:12:00,,0820.9,5.00,0.00,22.8,21.3,00.0,31.5,24.7,08.1,0000.0,0003.87,0002.31,0002.00
2022-10-25 05:13:00,,0820.9,5.01,0.00,22.8,21.4,00.0,31.5,24.7,08.1,0000.0,0004.03,0002.34,0002.00
2022-10-25 05:14:00,,0820.9,4.98,0.00,22.8,21.4,00.0,31.6,24.7,08.1,0000.0,0004.03,0002.34,0002.01
2022-10-25 05:15:00,,0821.0,5.00,0.00,22.8,21.4,00.0,31.6,24.7,08.2,0000.0,0003.69,0002.28,0001.99
2022-10-25 05:16:00,,0821.0,5.00,0.00,22.8,21.3,00.0,31.6,24.7,08.2,0000.0,0003.54,0002.25,0001.99
2022-10-25 05:17:00,,0821.0,5.00,0.00,22.8,21.4,00.0,31.6,24.7,08.2,0000.0,0003.40,0002.25,0001.98
2022-10-25 05:18:00,,0821.0,4.98,0.00,22.8,21.4,00.0,31.6,24.7,08.1,0000.0,0003.86,0002.27,0001.97
2022-10-25 05:19:00,,0821.0,5.00,0.00,22.8,21.4,00.0,31.6,24.7,08.1,0000.0,0003.83,0002.26,0001.95
2022-10-25 05:20:00,,0821.0,5.00,0.00,22.8,21.4,00.0,31.6,24.7,08.1,0000.0,0004.43,0002.25,0001.94
2022-10-25 05:21:00,,0821.0,4.99,0.00,22.8,21.4,00.0,31.6,24.7,08.1,0000.0,0004.68,0002.25,0001.94
2022-10-25 05:22:00,,0821.0,5.01,0.00,22.8,21.3,00.0,31.6,24.7,08.1,0000.0,0004.72,0002.27,0001.94
2022-10-25 05:23:00,,0821.0,5.00,0.00,22.8,21.4,00.0,31.6,24.7,08.1,0000.0,0004.67,0002.27,0001.94
2022-10-25 05:24:00,,0821.0,5.01,0.00,22.8,21.3,00.0,31.6,24.7,08.1,0000.0,0004.56,0002.27,0001.94
2022-10-25 05:25:00,,0820.9,4.98,0.00,22.8,21.3,00.0,31.6,24.7,08.1,0000.0,0004.53,0002.25,0001.92
2022-10-25 05:26:00,,0821.0,5.01,0.00,22.8,21.3,00.0,31.6,24.7,08.1,0000.0,0004.63,0002.29,0001.92
2022-10-25 05:27:00,,0820.9,5.01,0.00,22.8,21.3,00.0,31.6,24.7,08.1,0000.0,0004.75,0002.32,0001.92
2022-10-25 05:28:00,,0820.9,4.98,0.00,22.8,21.4,00.0,31.6,24.7,08.1,0000.0,0004.53,0002.26,0001.92
2022-10-25 05:29:00,,0820.9,5.01,0.00,22.8,21.4,00.0,31.6,24.8,08.1,0000.0,0003.89,0002.22,0001.91
2022-10-25 05:30:00,,0820.9,5.00,0.00,22.8,21.5,00.0,31.6,24.8,08.1,0000.0,0003.85,0002.22,0001.91
2022-10-25 05:31:00,,0820.9,5.00,0.00,22.9,21.5,00.0,31.6,24.8,08.1,0000.0,0003.24,0002.24,0001.91
2022-10-25 05:32:00,,0820.9,5.01,0.00,22.9,21.5,00.0,31.7,24.8,08.1,0000.0,0004.26,0002.23,0001.90
2022-10-25 05:33:00,,0820.9,5.00,0.00,22.9,21.6,00.0,31.7,24.8,08.1,0000.0,0004.84,0002.24,0001.90
2022-10-25 05:34:00,,0820.9,4.98,0.00,22.9,21.6,00.0,31.7,24.9,08.0,0000.0,0004.83,0002.23,0001.91
2022-10-25 05:35:00,,0820.9,5.01,0.00,22.9,21.6,00.0,31.7,24.9,08.1,0000.0,0004.81,0002.23,0001.92
2022-10-25 05:36:00,,0820.8,5.01,0.00,22.9,21.6,00.0,31.7,24.9,08.0,0000.0,0004.85,0002.25,0001.93
2022-10-25 05:37:00,,0820.8,4.98,0.00,22.9,21.4,00.0,31.7,24.8,08.0,0000.0,0004.81,0002.24,0001.94
2022-10-25 05:38:00,,0820.8,5.02,0.00,22.9,21.3,00.0,31.7,24.7,08.1,0000.0,0004.70,0002.22,0001.95
2022-10-25 05:39:00,,0820.8,4.98,0.00,22.8,21.3,00.0,31.7,24.8,08.1,0000.0,0004.78,0002.27,0001.99
2022-10-25 05:40:00,,0820.8,5.00,0.00,22.8,21.3,00.0,31.7,24.8,08.1,0000.0,0004.83,0002.31,0002.02
2022-10-25 05:41:00,,0820.8,5.01,0.00,22.9,21.3,00.0,31.7,24.8,08.1,0000.0,0004.90,0002.34,0002.05
2022-10-25 05:42:00,,0820.9,5.00,0.00,22.9,21.4,00.0,31.7,24.8,08.1,0000.0,0004.76,0002.31,0002.06
2022-10-25 05:43:00,,0820.8,4.99,0.00,22.9,21.4,00.0,31.7,24.8,08.1,0000.0,0003.54,0002.29,0002.07
2022-10-25 05:44:00,,0820.8,5.00,0.00,22.9,21.4,00.0,31.7,24.8,08.1,0000.0,0002.96,0002.25,0002.06
2022-10-25 05:45:00,,0820.8,5.01,0.00,22.9,21.4,00.0,31.7,24.8,08.1,0000.0,0002.96,0002.26,0002.06
2022-10-25 05:46:00,,0820.8,4.97,0.00,22.9,21.5,00.0,31.7,24.8,08.1,0000.0,0003.00,0002.26,0002.06
2022-10-25 05:47:00,,0820.7,5.02,0.00,22.9,21.5,00.0,31.7,24.9,08.2,0000.0,0002.92,0002.23,0002.05
2022-10-25 05:48:00,,0820.7,4.98,0.00,22.9,21.5,00.0,31.7,24.8,08.2,0000.0,0002.91,0002.22,0002.04
2022-10-25 05:49:00,,0820.7,5.01,0.00,22.9,21.6,00.0,31.7,24.9,08.2,0000.0,0003.03,0002.27,0002.04
2022-10-25 05:50:00,,0820.7,5.01,0.00,22.9,21.6,00.0,31.7,24.9,08.2,0000.0,0003.00,0002.25,0002.01
2022-10-25 05:51:00,,0820.7,4.99,0.00,22.9,21.6,00.0,31.7,24.9,08.2,0000.0,0003.01,0002.24,0001.97
2022-10-25 05:52:00,,0820.7,5.00,0.00,22.9,21.5,00.0,31.7,24.9,08.2,0000.0,0003.04,0002.24,0001.95
2022-10-25 05:53:00,,0820.8,5.00,0.00,22.9,21.5,00.0,31.7,24.9,08.2,0000.0,0003.06,0002.23,0001.94
2022-10-25 05:54:00,,0820.8,5.01,0.00,22.9,21.5,00.0,31.7,24.9,08.2,0000.0,0003.03,0002.23,0001.93
2022-10-25 05:55:00,,0820.8,5.01,0.00,22.9,21.5,00.0,31.7,24.9,08.2,0000.0,0002.90,0002.23,0001.94
2022-10-25 05:56:00,,0820.8,4.98,0.00,22.9,21.5,00.0,31.7,24.8,08.2,0000.0,0002.86,0002.21,0001.93
2022-10-25 05:57:00,,0820.9,5.00,0.00,22.9,21.6,00.0,31.7,24.9,08.2,0000.0,0002.79,0002.17,0001.93
2022-10-25 05:58:00,,0820.9,5.01,0.00,23.0,21.6,00.0,31.7,24.9,08.2,0000.0,0003.27,0002.20,0001.93
2022-10-25 05:59:00,,0820.8,5.01,0.00,23.0,21.6,00.0,31.7,24.9,08.2,0000.0,0004.16,0002.23,0001.93
